Ashtabula, OH

4:44 PM EDT on April 20, 2018 (GMT -0400)
Ashtabula County

Weather History for KHZY - June, 2013

Change the Weather History Date:

Wednesday, June 12, 2013

  Actual Average (KGKJ) Record (KGKJ)
Temperature  
Mean Temperature 68 °F -  
Max Temperature 75 °F 76 °F 88 °F (1959)
Min Temperature 60 °F 49 °F 33 °F (1972)
Cooling Degree Days 2    
Growing Degree Days 18 (Base 50)    
Moisture  
Dew Point 61 °F    
Average Humidity 80    
Maximum Humidity 94    
Minimum Humidity 64    
Precipitation  
Precipitation 0.27 in - - ()
Sea Level Pressure  
Sea Level Pressure 29.87 in    
Wind  
Wind Speed 2 mph (ESE)    
Max Wind Speed 10 mph    
Max Gust Speed -    
Visibility 7 miles    
Events Rain    
Averages and records for this station are not official NWS values.
T = Trace of Precipitation, MM = Missing Value Source: NWS Daily Summary

Daily Weather History Graph

Daily Weather History Graph

Search for Another Location

Airport or City:

Astronomy

Jun. 12, 2013 Rise Set
Actual Time 5:47 AM EDT 8:58 PM EDT
Civil Twilight 5:13 AM EDT 9:32 PM EDT
Nautical Twilight 4:29 AM EDT 10:16 PM EDT
Astronomical Twilight 3:37 AM EDT 11:08 PM EDT
Moon 9:27 AM EDT (6/12) 11:30 PM EDT (6/12)
Length of Visible Light 16h 19m
Length of Day
15h 10m
Waxing Crescent, 14% of the Moon is Illuminated
Jun 12
Waxing Crescent
Jun 16
First Quarter
Jun 23
Full
Jun 30
Last Quarter
Jul 8
New

Hourly Weather History & Observations

Time (EDT) Temp. Dew Point Humidity Pressure Visibility Wind Dir Wind Speed Gust Speed Precip Events Conditions
12:53 AM 60.1 °F 57.0 °F 90% 29.87 in 3.0 mi East 3.5 mph - N/A   Clear
1:53 AM 61.0 °F 57.9 °F 90% 29.86 in 4.0 mi East 3.5 mph - N/A   Mostly Cloudy
2:53 AM 62.1 °F 57.9 °F 86% 29.87 in 5.0 mi Calm Calm - N/A   Mostly Cloudy
3:53 AM 60.1 °F 57.0 °F 90% 29.85 in 3.0 mi Calm Calm - N/A   Partly Cloudy
4:53 AM 61.0 °F 57.0 °F 87% 29.86 in 5.0 mi Calm Calm - N/A   Partly Cloudy
5:53 AM 60.1 °F 57.0 °F 90% 29.87 in 2.5 mi Calm Calm - N/A   Partly Cloudy
6:41 AM 60.8 °F 57.2 °F 88% 29.91 in 3.0 mi Calm Calm - N/A   Partly Cloudy
6:50 AM 60.8 °F 57.2 °F 88% 29.92 in 2.5 mi Calm Calm - N/A   Partly Cloudy
6:53 AM 60.1 °F 57.0 °F 90% 29.91 in 2.5 mi Calm Calm - N/A   Partly Cloudy
7:01 AM 60.8 °F 57.2 °F 88% 29.92 in 4.0 mi Calm Calm - N/A   Partly Cloudy
7:53 AM 64.9 °F 60.1 °F 84% 29.90 in 10.0 mi SSE 4.6 mph - N/A   Clear
8:53 AM 69.1 °F 61.0 °F 75% 29.90 in 10.0 mi SE 3.5 mph - N/A   Clear
9:53 AM 72.0 °F 61.0 °F 68% 29.90 in 10.0 mi Calm Calm - N/A   Clear
10:53 AM 75.0 °F 62.1 °F 64% 29.91 in 10.0 mi ENE 4.6 mph - N/A   Clear
11:53 AM 75.0 °F 63.0 °F 66% 29.92 in 10.0 mi Calm Calm - N/A   Partly Cloudy
12:53 PM 75.0 °F 62.1 °F 64% 29.91 in 10.0 mi Calm Calm - N/A   Partly Cloudy
1:29 PM 75.2 °F 62.6 °F 65% 29.92 in 10.0 mi NW 3.5 mph - N/A   Mostly Cloudy
1:53 PM 75.0 °F 64.0 °F 69% 29.90 in 10.0 mi NNW 5.8 mph - N/A   Mostly Cloudy
2:01 PM 75.2 °F 62.6 °F 65% 29.91 in 10.0 mi NNW 4.6 mph - N/A   Partly Cloudy
2:53 PM 75.9 °F 64.9 °F 69% 29.85 in 10.0 mi East 3.5 mph - N/A   Clear
3:53 PM 75.0 °F 64.0 °F 69% 29.83 in 9.0 mi South 5.8 mph - N/A   Scattered Clouds
4:53 PM 75.9 °F 64.9 °F 69% 29.86 in 8.0 mi WSW 8.1 mph - N/A   Mostly Cloudy
5:53 PM 72.0 °F 64.0 °F 76% 29.85 in 10.0 mi North 4.6 mph - N/A   Partly Cloudy
6:53 PM 70.0 °F 63.0 °F 78% 29.85 in 10.0 mi Calm Calm - N/A   Mostly Cloudy
7:53 PM 68.0 °F 62.1 °F 81% 29.83 in 10.0 mi Calm Calm - 0.01 in   Overcast
8:53 PM 66.9 °F 62.1 °F 84% 29.81 in 7.0 mi ESE 3.5 mph - N/A   Clear
9:53 PM 66.0 °F 63.0 °F 90% 29.80 in 7.0 mi SE 4.6 mph - 0.00 in Rain Light Rain
10:53 PM 66.9 °F 63.0 °F 87% 29.76 in 6.0 mi ESE 3.5 mph - 0.00 in   Overcast
11:53 PM 68.0 °F 64.0 °F 87% 29.78 in 1.5 mi WNW 10.4 mph - 0.26 in Rain Heavy Rain
11:56 PM 66.2 °F 64.4 °F 94% 29.76 in 0.8 mi Variable 6.9 mph - 0.23 in Rain Heavy Rain